Location: Klein M�hlingen
(51.9472°N, 11.7453°E)
Time: 09:06:18
(UTC+00:00)

Envisat - Pass Details

Date: 28 September 2021
Orbit: 764 x 766 km, 98.2° (Epoch: 26 October)

Event Time Altitude Azimuth Distance (km) Brightness Sun altitude
Rises 03:43:26 0° 20° (NNE) 3,245 6.8 -13.9°
Reaches altitude 10° 03:45:58 10° 30° (NNE) 2,314 6.1 -13.5°
Maximum altitude 03:50:34 33° 95° (E) 1,268 4.9 -12.8°
Drops below altitude 10° 03:55:07 10° 159° (SSE) 2,297 5.6 -12.1°
Sets 03:57:38 0° 169° (SSE) 3,218 6.2 -11.8°
